| time (UTC) | temp F | wind direction | speed knots | gust knots | rain 1hr in | rain 24hr in | rain mn in | humidity % | barometer mb |
| 20260505000003 | 76 | 85 | 4.3 | 8.7 | 0.00 | 0.29 | 0.19 | 88 | 1013.1 |
| 20260504235504 | 76 | 57 | 4.3 | 7.8 | 0.00 | 0.29 | 0.19 | 88 | 1013.3 |
| 20260504234504 | 76 | 71 | 4.3 | 7.8 | 0.01 | 0.29 | 0.19 | 88 | 1013.1 |
| 20260504234004 | 76 | 72 | 4.3 | 7.0 | 0.01 | 0.29 | 0.19 | 88 | 1013.0 |
| 20260504233504 | 76 | 80 | 1.7 | 4.3 | 0.01 | 0.29 | 0.19 | 88 | 1012.9 |
| 20260504233004 | 75 | 77 | 1.7 | 6.1 | 0.01 | 0.29 | 0.19 | 88 | 1012.9 |
| 20260504232005 | 75 | 76 | 3.5 | 7.8 | 0.01 | 0.29 | 0.19 | 89 | 1013.0 |
| 20260504231504 | 75 | 82 | 5.2 | 8.7 | 0.01 | 0.29 | 0.19 | 89 | 1013.0 |
| 20260504231004 | 75 | 76 | 5.2 | 7.8 | 0.01 | 0.29 | 0.19 | 89 | 1013.1 |
| 20260504230503 | 75 | 71 | 2.6 | 7.0 | 0.00 | 0.28 | 0.19 | 89 | 1013.2 |
| 20260504230003 | 75 | 49 | 5.2 | 7.8 | 0.00 | 0.28 | 0.19 | 89 | 1013.3 |
| 20260504225504 | 75 | 79 | 4.3 | 7.8 | 0.00 | 0.28 | 0.19 | 88 | 1013.5 |
| 20260504225003 | 76 | 60 | 4.3 | 7.0 | 0.00 | 0.28 | 0.18 | 87 | 1013.5 |
| 20260504224503 | 76 | 72 | 2.6 | 7.0 | 0.00 | 0.28 | 0.18 | 86 | 1013.4 |
| 20260504224004 | 77 | 73 | 2.6 | 7.8 | 0.00 | 0.28 | 0.18 | 84 | 1013.0 |
| 20260504223503 | 77 | 57 | 5.2 | 11.3 | 0.00 | 0.28 | 0.18 | 83 | 1012.3 |
| 20260504223003 | 78 | 95 | 6.1 | 11.3 | 0.00 | 0.28 | 0.18 | 82 | 1011.8 |
| 20260504222504 | 77 | 101 | 5.2 | 8.7 | 0.00 | 0.39 | 0.18 | 82 | 1012.0 |
| 20260504222005 | 77 | 89 | 5.2 | 10.4 | 0.00 | 0.39 | 0.18 | 82 | 1012.1 |
| 20260504221503 | 77 | 85 | 6.1 | 10.4 | 0.00 | 0.59 | 0.18 | 82 | 1011.9 |
| 20260504221004 | 77 | 94 | 5.2 | 10.4 | 0.00 | 0.62 | 0.18 | 82 | 1011.6 |
| 20260504220004 | 77 | 103 | 2.6 | 10.4 | 0.00 | 0.62 | 0.18 | 82 | 1011.7 |
| 20260504215004 | 77 | 87 | 5.2 | 7.0 | 0.00 | 0.62 | 0.18 | 82 | 1011.9 |
| 20260504214004 | 77 | 98 | 4.3 | 10.4 | 0.00 | 0.62 | 0.18 | 82 | 1011.5 |
| 20260504213504 | 77 | 96 | 6.1 | 12.2 | 0.00 | 0.62 | 0.18 | 81 | 1011.0 |
| 20260504213003 | 77 | 72 | 5.2 | 8.7 | 0.00 | 0.62 | 0.18 | 81 | 1010.7 |
| 20260504212504 | 77 | 78 | 4.3 | 7.8 | 0.00 | 0.62 | 0.18 | 81 | 1011.2 |
| 20260504212004 | 77 | 96 | 4.3 | 10.4 | 0.00 | 0.62 | 0.18 | 81 | 1011.0 |
| 20260504211503 | 77 | 98 | 4.3 | 8.7 | 0.00 | 0.62 | 0.18 | 81 | 1011.1 |
| 20260504211005 | 77 | 65 | 4.3 | 12.2 | 0.00 | 0.62 | 0.18 | 82 | 1011.3 |
| 20260504210504 | 77 | 64 | 4.3 | 7.0 | 0.00 | 0.62 | 0.18 | 83 | 1011.9 |
| 20260504205505 | 78 | 72 | 6.1 | 8.7 | 0.00 | 0.62 | 0.18 | 82 | 1011.2 |
| 20260504205004 | 78 | 114 | 2.6 | 12.2 | 0.00 | 0.62 | 0.18 | 81 | 1011.1 |
| 20260504204004 | 77 | 95 | 5.2 | 13.0 | 0.00 | 0.62 | 0.18 | 81 | 1010.3 |
| 20260504203504 | 77 | 93 | 5.2 | 10.4 | 0.00 | 0.62 | 0.18 | 81 | 1010.7 |
| 20260504203004 | 77 | 91 | 7.8 | 12.2 | 0.00 | 0.62 | 0.18 | 83 | 1011.6 |
| 20260504202504 | 77 | 84 | 5.2 | 10.4 | 0.00 | 0.62 | 0.18 | 83 | 1011.8 |
| 20260504202004 | 77 | 84 | 6.1 | 11.3 | 0.00 | 0.62 | 0.18 | 83 | 1011.6 |
| 20260504201504 | 77 | 75 | 6.1 | 12.2 | 0.00 | 0.62 | 0.18 | 82 | 1010.9 |
| 20260504201003 | 77 | 99 | 6.1 | 10.4 | 0.00 | 0.62 | 0.18 | 81 | 1010.3 |
| 20260504200504 | 77 | 75 | 5.2 | 10.4 | 0.00 | 0.62 | 0.18 | 82 | 1010.6 |
| 20260504200004 | 76 | 78 | 6.1 | 11.3 | 0.01 | 0.62 | 0.18 | 84 | 1011.2 |
| 20260504195504 | 76 | 94 | 7.0 | 13.0 | 0.01 | 0.62 | 0.18 | 85 | 1011.6 |
| 20260504195003 | 76 | 114 | 3.5 | 11.3 | 0.01 | 0.62 | 0.18 | 86 | 1012.5 |
| 20260504194504 | 76 | 85 | 6.1 | 11.3 | 0.01 | 0.62 | 0.18 | 86 | 1012.3 |
| 20260504194004 | 77 | 74 | 5.2 | 11.3 | 0.01 | 0.62 | 0.18 | 86 | 1012.3 |
| 20260504193504 | 76 | 52 | 4.3 | 10.4 | 0.01 | 0.62 | 0.18 | 87 | 1012.1 |
| 20260504193004 | 76 | 79 | 5.2 | 12.2 | 0.01 | 0.62 | 0.18 | 88 | 1012.9 |
| 20260504192504 | 76 | 94 | 10.4 | 13.9 | 0.01 | 0.62 | 0.18 | 87 | 1012.5 |
| 20260504192004 | 75 | 98 | 6.1 | 10.4 | 0.01 | 0.62 | 0.18 | 89 | 1013.2 |
| 20260504191504 | 75 | 75 | 6.1 | 12.2 | 0.01 | 0.62 | 0.18 | 91 | 1013.9 |
| 20260504191003 | 74 | 98 | 7.8 | 12.2 | 0.00 | 0.62 | 0.18 | 90 | 1014.0 |
| 20260504190504 | 74 | 80 | 7.0 | 13.0 | 0.02 | 0.62 | 0.18 | 90 | 1014.0 |
| 20260504190004 | 74 | 94 | 6.1 | 15.6 | 0.04 | 0.61 | 0.17 | 90 | 1014.0 |
| 20260504185005 | 74 | 87 | 6.1 | 11.3 | 0.04 | 0.61 | 0.17 | 91 | 1014.3 |
| 20260504184503 | 74 | 81 | 5.2 | 13.0 | 0.04 | 0.61 | 0.17 | 92 | 1014.6 |
| 20260504184004 | 74 | 62 | 6.1 | 11.3 | 0.04 | 0.61 | 0.17 | 92 | 1014.4 |
| 20260504183505 | 74 | 72 | 6.1 | 12.2 | 0.04 | 0.61 | 0.17 | 93 | 1014.4 |
| 20260504181504 | 74 | 66 | 6.1 | 11.3 | 0.07 | 0.61 | 0.18 | 94 | 1014.5 |
| 20260504181003 | 74 | 84 | 4.3 | 12.2 | 0.07 | 0.61 | 0.18 | 94 | 1014.5 |
| 20260504180504 | 75 | 38 | 6.1 | 7.8 | 0.03 | 0.59 | 0.17 | 93 | 1014.6 |
| 20260504180003 | 75 | 48 | 5.2 | 7.8 | 0.01 | 0.56 | 0.14 | 93 | 1014.7 |
| 20260504175504 | 75 | 70 | 5.2 | 7.8 | 0.01 | 0.56 | 0.13 | 94 | 1014.6 |
| 20260504175004 | 75 | 76 | 5.2 | 7.8 | 0.03 | 0.56 | 0.13 | 94 | 1014.6 |
| 20260504174504 | 75 | 93 | 4.3 | 7.8 | 0.06 | 0.56 | 0.13 | 95 | 1014.6 |
| 20260504174004 | 75 | 63 | 4.3 | 6.1 | 0.06 | 0.56 | 0.13 | 95 | 1014.6 |
| 20260504173504 | 74 | 89 | 1.7 | 7.0 | 0.07 | 0.56 | 0.13 | 95 | 1014.6 |
| 20260504172503 | 74 | 93 | 2.6 | 7.0 | 0.07 | 0.56 | 0.13 | 94 | 1014.5 |
| 20260504172004 | 74 | 44 | 2.6 | 7.0 | 0.14 | 0.55 | 0.21 | 93 | 1014.5 |
| 20260504151004 | 78 | 76 | 1.7 | 2.6 | 0.00 | 0.42 | 0.07 | 84 | 1012.7 |
| 20260504150504 | 78 | 34 | 2.6 | 4.3 | 0.00 | 0.42 | 0.07 | 85 | 1013.0 |
| 20260504141003 | 75 | 20 | 1.7 | 5.2 | 0.00 | 0.42 | 0.07 | 94 | 1015.7 |
| 20260504140503 | 75 | 23 | 2.6 | 5.2 | 0.00 | 0.42 | 0.07 | 94 | 1015.6 |
| 20260504130503 | 75 | 28 | 1.7 | 2.6 | 0.00 | 0.61 | 0.07 | 98 | 1014.9 |
| 20260504110504 | 73 | 15 | 0.9 | 4.3 | 0.00 | 1.15 | 0.07 | 99 | 1014.4 |
| 20260504100504 | 74 | 258 | 0.9 | 4.3 | 0.00 | 1.29 | 0.07 | 98 | 1014.2 |
| 20260504081503 | 74 | 136 | 0.0 | 0.9 | 0.07 | 1.35 | 0.07 | 97 | 1013.1 |
| 20260504081004 | 74 | 173 | 0.0 | 0.9 | 0.07 | 1.35 | 0.07 | 97 | 1013.3 |
| 20260504080504 | 74 | 76 | 0.9 | 1.7 | 0.07 | 1.35 | 0.07 | 97 | 1013.3 |
| 20260504050504 | 75 | 342 | 0.0 | 0.9 | 0.00 | 1.28 | 0.00 | 95 | 1015.1 |
| 20260504045004 | 75 | 169 | 0.0 | 0.9 | 0.00 | 1.28 | 0.00 | 95 | 1015.1 |
| 20260504044003 | 75 | 162 | 0.0 | 0.9 | 0.00 | 1.28 | 0.00 | 95 | 1015.0 |
| 20260504043504 | 75 | 117 | 0.0 | 0.0 | 0.00 | 1.28 | 0.00 | 95 | 1014.9 |
| 20260504043004 | 75 | 63 | 0.0 | 0.9 | 0.00 | 1.28 | 0.00 | 95 | 1014.8 |
| 20260504042504 | 75 | 75 | 0.9 | 0.9 | 0.00 | 1.28 | 0.00 | 95 | 1014.8 |
| 20260504042005 | 75 | 117 | 0.0 | 1.7 | 0.00 | 1.28 | 0.00 | 95 | 1014.9 |
| 20260504041504 | 75 | 61 | 0.9 | 1.7 | 0.00 | 1.28 | 0.00 | 95 | 1014.8 |
| 20260504041003 | 75 | 84 | 0.9 | 2.6 | 0.00 | 1.28 | 0.00 | 95 | 1014.9 |
| 20260504035504 | 75 | 51 | 1.7 | 2.6 | 0.00 | 1.28 | 0.93 | 95 | 1015.0 |
| 20260504035004 | 75 | 79 | 0.9 | 2.6 | 0.00 | 1.28 | 0.93 | 95 | 1015.0 |
| 20260504034504 | 75 | 63 | 1.7 | 2.6 | 0.00 | 1.28 | 0.93 | 95 | 1014.9 |
| 20260504034003 | 75 | 41 | 1.7 | 2.6 | 0.00 | 1.28 | 0.93 | 95 | 1015.0 |
| 20260504033504 | 75 | 63 | 2.6 | 4.3 | 0.00 | 1.28 | 0.93 | 96 | 1015.0 |
| 20260504032504 | 75 | 91 | 0.9 | 2.6 | 0.00 | 1.28 | 0.93 | 96 | 1015.3 |
| 20260504031504 | 74 | 137 | 0.0 | 1.7 | 0.00 | 1.28 | 0.93 | 95 | 1015.3 |
| 20260504031004 | 74 | 97 | 0.9 | 1.7 | 0.00 | 1.28 | 0.93 | 95 | 1015.4 |
| 20260504030004 | 74 | 111 | 0.0 | 0.9 | 0.00 | 1.28 | 0.93 | 95 | 1015.3 |
| 20260504024504 | 74 | 84 | 0.9 | 1.7 | 0.00 | 1.28 | 0.93 | 95 | 1015.1 |
| 20260504024004 | 74 | 82 | 0.0 | 1.7 | 0.00 | 1.28 | 0.93 | 95 | 1015.2 |
| 20260504023504 | 74 | 111 | 0.0 | 1.7 | 0.00 | 1.28 | 0.93 | 95 | 1015.3 |
| 20260504023004 | 74 | 100 | 0.0 | 1.7 | 0.00 | 1.28 | 0.93 | 95 | 1015.3 |
| 20260504022504 | 74 | 99 | 0.9 | 1.7 | 0.00 | 1.28 | 0.93 | 95 | 1015.2 |
| 20260504022004 | 74 | 83 | 0.0 | 1.7 | 0.00 | 1.28 | 0.93 | 95 | 1015.1 |
| 20260504021504 | 74 | 51 | 0.0 | 1.7 | 0.00 | 1.28 | 0.93 | 95 | 1015.0 |
| 20260504021004 | 74 | 39 | 0.9 | 1.7 | 0.00 | 1.28 | 0.93 | 95 | 1015.0 |
| 20260504020504 | 74 | 46 | 0.0 | 0.9 | 0.00 | 1.28 | 0.93 | 95 | 1015.0 |
| 20260504020004 | 74 | 30 | 0.0 | 2.6 | 0.00 | 1.28 | 0.93 | 94 | 1015.0 |
| 20260504015503 | 74 | 84 | 1.7 | 2.6 | 0.00 | 1.28 | 0.93 | 94 | 1015.0 |
| 20260504013504 | 74 | 72 | 1.7 | 2.6 | 0.00 | 1.28 | 0.93 | 94 | 1014.9 |
| 20260504013003 | 74 | 42 | 2.6 | 5.2 | 0.00 | 1.28 | 0.93 | 94 | 1014.8 |
| 20260504012504 | 74 | 19 | 1.7 | 7.0 | 0.00 | 1.28 | 0.93 | 94 | 1014.7 |
| 20260504012004 | 75 | 27 | 2.6 | 7.0 | 0.00 | 1.28 | 0.93 | 94 | 1014.6 |
| 20260504011504 | 75 | 45 | 2.6 | 5.2 | 0.00 | 1.28 | 0.93 | 94 | 1014.5 |
| 20260504011003 | 75 | 15 | 0.9 | 4.3 | 0.00 | 1.28 | 0.93 | 94 | 1014.6 |
| 20260504010504 | 75 | 52 | 3.5 | 6.1 | 0.00 | 1.28 | 0.93 | 94 | 1014.5 |
| 20260504010003 | 75 | 45 | 2.6 | 5.2 | 0.00 | 1.28 | 0.93 | 94 | 1014.5 |
| 20260504005004 | 75 | 33 | 2.6 | 4.3 | 0.00 | 1.28 | 0.93 | 93 | 1014.5 |
| 20260504004504 | 75 | 34 | 2.6 | 6.1 | 0.00 | 1.28 | 0.93 | 93 | 1014.4 |
| 20260504003504 | 75 | 52 | 3.5 | 5.2 | 0.00 | 1.28 | 0.93 | 93 | 1014.2 |
| 20260504003005 | 75 | 47 | 2.6 | 6.1 | 0.00 | 1.28 | 0.93 | 93 | 1014.2 |
| 20260504002503 | 75 | 75 | 2.6 | 6.1 | 0.00 | 1.28 | 0.93 | 93 | 1014.2 |
| 20260504001504 | 75 | 328 | 0.9 | 1.7 | 0.00 | 1.28 | 0.93 | 93 | 1014.3 |
| 20260504001003 | 75 | 77 | 0.9 | 2.6 | 0.00 | 1.28 | 0.93 | 93 | 1014.3 |